Simultaneous Nadir Overpasses (SNOs) Predictions

Prediction of SNOs between METOP-B and TERRA Satellite Orbit:

Table of predicted SNOs for the next 14.0 days since TLE Epoch: 6/21/2025
Index Date (METOP-B) Time (METOP-B) Lat,Lon (METOP-B) SZA (METOP-B ) Date (TERRA) Time (TERRA) Lat,Lon (TERRA) SZA (TERRA ) Distance(km) Time Diff (sec)
1 06/22/2025 17:16:55 77.85, -78.63 54.35 06/22/2025 17:18:00 77.85, -78.68 54.35 1.29 65
2 06/22/2025 18:07:27 -78.25, 90.71 125.24 06/22/2025 18:07:11 -78.26, 90.79 125.24 1.91 16
3 06/25/2025 06:56:30 -78.15,-102.12 125.30 06/25/2025 06:56:56 -78.14,-102.24 125.31 2.93 26
4 06/25/2025 07:47:01 78.51, 67.18 55.09 06/25/2025 07:46:06 78.51, 67.21 55.09 0.72 55
5 06/27/2025 19:45:38 -77.83, 64.03 125.52 06/27/2025 19:46:45 -77.82, 63.92 125.54 2.69 67
6 06/27/2025 20:36:09 78.20,-126.78 54.86 06/27/2025 20:35:55 78.21,-126.72 54.86 1.57 14
7 06/30/2025 09:25:15 77.92, 39.52 54.71 06/30/2025 09:25:42 77.93, 39.57 54.72 1.24 27
8 06/30/2025 10:15:45 -78.40,-150.67 124.80 06/30/2025 10:14:51 -78.41,-150.55 124.79 3.05 54
9 07/02/2025 22:14:21 77.68,-153.93 54.65 07/02/2025 22:15:29 77.68,-153.94 54.65 0.32 68



Historial Predications of SNOs between METOP-B and TERRA
